Regional Weather Roundup
Issued by NWS Newport/Morehead, NC

Current Version | Previous Version | Graphics & Text | Print | Product List | Glossary Off
Versions: 1 2 3 4 5 6 7 8 9 10 11 12 13 14 15 16 17 18 19 20 21 22 23 24 25 26 27 28 29 30 31 32 33 34 35 36 37 38 39 40 41 42 43 44 45 46 47 48 49 50
000 ASUS42 KMHX 262213 RWRMHX WEATHER ROUNDUP FOR EASTERN NORTH CAROLINA NATIONAL WEATHER SERVICE NEWPORT/MOREHEAD CITY NC 600 PM EDT WED APR 26 2017 NOTE: "FAIR" INDICATES FEW OR NO CLOUDS BELOW 12,000 FEET WITH NO SIGNIFICANT WEATHER AND/OR OBSTRUCTIONS TO VISIBILITY NCZ015>017-031-032-045>047-102-103-262300- NORTH COAST CITY SKY/WX TMP DP RH WIND PRES REMARKS EDENTON SUNNY 76 64 65 CALM 29.81S ELIZABETH CITY MOSUNNY 74 64 71 S7 29.80S KITTY HAWK MOCLDY 71 58 62 CALM 29.81R MANTEO CLOUDY 72 60 65 N5 29.83R $$ NCZ045>047-081-094-103-104-262300- CENTRAL COAST CITY SKY/WX TMP DP RH WIND PRES REMARKS FRISCO MOSUNNY 72 62 71 SW9 29.84R HAZE $$ NCZ095-097-098-100-101-262300- SOUTHERN COAST CITY SKY/WX TMP DP RH WIND PRES REMARKS BEAUFORT SUNNY 73 66 78 S12 29.83R CEDAR ISLAND NOT AVBL JACKSONVILLE MOSUNNY 77 65 66 S9 29.80R PINEY ISLAND MOCLDY N/A N/A N/A SW14 29.82R WILMINGTON SUNNY 80 63 55 SW14G21 29.81R $$ NCZ011>013-027>030-043-044-078>080-089-090>093-098-262300- COASTAL PLAIN CITY SKY/WX TMP DP RH WIND PRES REMARKS AHOSKIE N/A 75 63 66 CALM 29.79S CLINTON MOSUNNY 80 64 58 SW3 29.80S ELIZABETHTOWN SUNNY 82 62 51 SW6 29.80R GOLDSBORO SUNNY 81 62 53 SW9 29.78R GREENVILLE MOSUNNY 79 63 57 W3 29.82S HAVELOCK NOT AVBL KENANSVILLE PTSUNNY 81 64 57 SW5 29.80R KINSTON SUNNY 81 63 54 CALM 29.80S NEW BERN PTSUNNY 77 65 66 S9 29.82R RICHLANDS PTSUNNY 81 63 54 SW10 29.81R ROCKY MOUNT PTSUNNY 77 63 61 SW7 29.79S WASHINGTON MOSUNNY 76 63 63 W6 29.80R WHITEVILLE SUNNY 80 66 62 S12 29.81R $$ AMZ130-135-150-152-154-156-158-170-250-252-270-ANZ085-086-088-633-658-670-262300- MARINE OBSERVATIONS STATION/POSITION TIME TEMP WIND PRES WAVE SWELL AIR SEA DIR/SP/G HT/PER HT/PER (UTC) (F) (DEG/KT/KT) (MB) (FT/S) (FT/S) CHESAPEAKE LIGHT NOT AVBL 64 E VA BEACH 2150 59 58 320/ 2/ 4 1010.6 6/10 5/10 DUCK 2148 71 60 240/ 8/ 10 1009.0 2 E DUCK 2200 62 N/A 4/10 2/11 OREGON INLET 2142 69 66 170/ 6/ 7 1009.8 13E OREGON INLT 2148 62 N/A 5/ 9 5/ 9 HATTERAS CG 2148 71 69 200/ 6/ 9 1010.0 DIAMOND BUOY 2150 71 77 240/ 10/ 12 1010.4 5/ 9 5/ 9 CAPE LOOKOUT 2200 72 200/ 10/ 11 1009.9 BEAUFORT LAB 2148 71 68 200/ 10/ 13 1009.2 30 SE NEW RVR IN 2108 71 210/ 10/ 12 1010.3 30 SE NEW RVR IN 2143 72 N/A 4/ 9 2/11 27 SE WRIGHTSVLE 2108 72 72 190/ 12/ 16 1009.5 5 SE WRIGHTSVLE 2108 71 71 190/ 10/ 17 1009.7 225 S CAPE HAT 2150 74 75 220/ 10/ 12 1012.5 6/ 7 7/ 7 41 SE CHARLESTON 2150 74 74 230/ 10/ 12 1010.8 4/ 9 3/ 9 $$

USA.gov is the U.S. government's official web portal to all federal, state and local government web resources and services.